| time (UTC) | temp F | wind direction | speed MPH | gust MPH | rain 1hr in | rain 24hr in | rain mn in | humidity % | barometer mb |
| 20260831134003 | 63 | 310 | 10.0 | 16.0 | 0.00 | 0.01 | 0.00 | 76 | 1018.7 |
| 20260831133003 | 62 | 305 | 8.0 | 13.0 | 0.00 | 0.01 | 0.00 | 78 | 1018.6 |
| 20260831132002 | 62 | 302 | 8.0 | 13.0 | 0.00 | 0.01 | 0.00 | 79 | 1018.5 |
| 20260831130023 | 61 | 324 | 8.0 | 15.0 | 0.00 | 0.01 | 0.00 | 82 | 1018.2 |
| 20260831125003 | 60 | 327 | 9.0 | 13.0 | 0.00 | 0.01 | 0.00 | 84 | 1018.1 |
| 20260831124003 | 60 | 329 | 8.0 | 14.0 | 0.00 | 0.01 | 0.00 | 85 | 1018.0 |
| 20260831123003 | 59 | 319 | 8.0 | 16.0 | 0.00 | 0.01 | 0.00 | 86 | 1018.1 |
| 20260831122003 | 59 | 319 | 7.0 | 13.0 | 0.00 | 0.01 | 0.00 | 88 | 1018.3 |
| 20260831121002 | 58 | 319 | 7.0 | 13.0 | 0.00 | 0.01 | 0.00 | 89 | 1018.3 |
| 20260831120003 | 58 | 325 | 9.0 | 14.0 | 0.00 | 0.01 | 0.00 | 90 | 1018.3 |
| 20260831115024 | 58 | 320 | 6.0 | 11.0 | 0.00 | 0.01 | 0.00 | 90 | 1018.5 |
| 20260831114002 | 57 | 302 | 8.0 | 12.0 | 0.00 | 0.01 | 0.00 | 91 | 1018.5 |
| 20260831113045 | 57 | 301 | 9.0 | 13.0 | 0.00 | 0.01 | 0.00 | 91 | 1018.3 |
| 20260831112002 | 57 | 302 | 7.0 | 10.0 | 0.00 | 0.01 | 0.00 | 91 | 1018.4 |
| 20260831111003 | 57 | 295 | 9.0 | 12.0 | 0.00 | 0.01 | 0.00 | 91 | 1018.2 |
| 20260831110002 | 56 | 298 | 9.0 | 13.0 | 0.00 | 0.01 | 0.00 | 92 | 1018.0 |
| 20260831105024 | 56 | 296 | 8.0 | 11.0 | 0.00 | 0.01 | 0.00 | 92 | 1018.0 |
| 20260831104003 | 56 | 299 | 9.0 | 12.0 | 0.00 | 0.01 | 0.00 | 92 | 1018.0 |
| 20260831103003 | 56 | 294 | 8.0 | 12.0 | 0.00 | 0.01 | 0.00 | 91 | 1017.7 |
| 20260831102003 | 56 | 295 | 8.0 | 11.0 | 0.00 | 0.01 | 0.00 | 91 | 1017.7 |
| 20260831101024 | 56 | 306 | 6.0 | 11.0 | 0.00 | 0.01 | 0.00 | 91 | 1017.6 |
| 20260831100002 | 56 | 296 | 7.0 | 11.0 | 0.00 | 0.01 | 0.00 | 91 | 1017.5 |
| 20260831095003 | 56 | 293 | 7.0 | 12.0 | 0.00 | 0.01 | 0.00 | 92 | 1017.4 |
| 20260831094003 | 56 | 288 | 9.0 | 11.0 | 0.00 | 0.01 | 0.00 | 91 | 1017.3 |
| 20260831093003 | 56 | 295 | 8.0 | 9.0 | 0.00 | 0.01 | 0.00 | 91 | 1017.0 |
| 20260831092003 | 56 | 301 | 8.0 | 11.0 | 0.00 | 0.01 | 0.00 | 91 | 1017.0 |
| 20260831091002 | 56 | 299 | 6.0 | 11.0 | 0.00 | 0.01 | 0.00 | 91 | 1016.8 |
| 20260831090003 | 56 | 310 | 8.0 | 12.0 | 0.00 | 0.01 | 0.00 | 91 | 1016.5 |
| 20260831085002 | 56 | 328 | 6.0 | 11.0 | 0.00 | 0.01 | 0.00 | 91 | 1016.3 |
| 20260831084003 | 56 | 325 | 7.0 | 11.0 | 0.00 | 0.01 | 0.00 | 91 | 1016.1 |
| 20260831083003 | 57 | 321 | 7.0 | 11.0 | 0.00 | 0.01 | 0.00 | 91 | 1016.1 |
| 20260831082003 | 57 | 318 | 5.0 | 12.0 | 0.00 | 0.01 | 0.00 | 90 | 1016.1 |
| 20260831081003 | 57 | 338 | 6.0 | 10.0 | 0.00 | 0.01 | 0.00 | 90 | 1016.0 |
| 20260831080002 | 57 | 337 | 5.0 | 11.0 | 0.00 | 0.01 | 0.00 | 91 | 1016.2 |
| 20260831075003 | 58 | 316 | 5.0 | 10.0 | 0.00 | 0.01 | 0.00 | 90 | 1016.1 |
| 20260831074003 | 58 | 320 | 6.0 | 11.0 | 0.00 | 0.01 | 0.00 | 90 | 1016.4 |
| 20260831073002 | 58 | 334 | 7.0 | 11.0 | 0.00 | 0.01 | 0.00 | 90 | 1016.2 |
| 20260831072003 | 58 | 335 | 7.0 | 14.0 | 0.00 | 0.01 | 0.00 | 90 | 1016.3 |
| 20260831071003 | 58 | 344 | 8.0 | 14.0 | 0.00 | 0.01 | 0.00 | 90 | 1016.2 |
| 20260831070023 | 58 | 331 | 10.0 | 15.0 | 0.00 | 0.01 | 0.00 | 90 | 1016.1 |
| 20260831065003 | 58 | 325 | 8.0 | 14.0 | 0.00 | 0.01 | 0.00 | 90 | 1015.9 |
| 20260831064002 | 59 | 328 | 9.0 | 14.0 | 0.00 | 0.01 | 0.00 | 91 | 1016.0 |
| 20260831063003 | 59 | 318 | 8.0 | 15.0 | 0.00 | 0.01 | 0.00 | 90 | 1015.9 |
| 20260831062003 | 59 | 336 | 6.0 | 14.0 | 0.00 | 0.01 | 0.00 | 90 | 1015.6 |
| 20260831061023 | 59 | 320 | 10.0 | 15.0 | 0.00 | 0.01 | 0.00 | 90 | 1015.6 |
| 20260831060003 | 60 | 315 | 7.0 | 13.0 | 0.00 | 0.01 | 0.00 | 90 | 1015.4 |
| 20260831055003 | 60 | 316 | 6.0 | 10.0 | 0.00 | 0.01 | 0.00 | 90 | 1015.3 |
| 20260831054003 | 60 | 314 | 7.0 | 14.0 | 0.00 | 0.01 | 0.00 | 90 | 1015.3 |
| 20260831053003 | 60 | 311 | 9.0 | 13.0 | 0.00 | 0.01 | 0.00 | 90 | 1015.2 |
| 20260831052002 | 60 | 318 | 7.0 | 13.0 | 0.00 | 0.01 | 0.00 | 91 | 1015.3 |
| 20260831051003 | 60 | 311 | 7.0 | 10.0 | 0.00 | 0.01 | 0.00 | 91 | 1015.2 |
| 20260831050003 | 60 | 321 | 7.0 | 11.0 | 0.00 | 0.01 | 0.00 | 91 | 1015.0 |
| 20260831045002 | 60 | 320 | 5.0 | 12.0 | 0.00 | 0.01 | 0.00 | 91 | 1015.0 |
| 20260831044003 | 60 | 315 | 7.0 | 11.0 | 0.00 | 0.01 | 0.00 | 91 | 1014.9 |
| 20260831043002 | 60 | 291 | 7.0 | 11.0 | 0.00 | 0.01 | 0.00 | 90 | 1014.8 |
| 20260831042024 | 60 | 303 | 6.0 | 9.0 | 0.00 | 0.01 | 0.00 | 90 | 1014.9 |
| 20260831041003 | 61 | 297 | 6.0 | 11.0 | 0.00 | 0.01 | 0.00 | 90 | 1014.8 |
| 20260831040003 | 61 | 313 | 5.0 | 9.0 | 0.01 | 0.01 | 0.01 | 90 | 1014.8 |
| 20260831035003 | 61 | 316 | 5.0 | 9.0 | 0.01 | 0.01 | 0.01 | 90 | 1014.7 |
| 20260831034003 | 61 | 315 | 3.0 | 8.0 | 0.01 | 0.01 | 0.01 | 89 | 1014.5 |
| 20260831033024 | 61 | 331 | 4.0 | 8.0 | 0.00 | 0.00 | 0.00 | 89 | 1014.5 |
| 20260831032003 | 61 | 321 | 5.0 | 9.0 | 0.00 | 0.00 | 0.00 | 88 | 1014.5 |
| 20260831031003 | 61 | 322 | 3.0 | 7.0 | 0.00 | 0.00 | 0.00 | 88 | 1014.5 |
| 20260831030003 | 62 | 351 | 5.0 | 11.0 | 0.00 | 0.00 | 0.00 | 87 | 1014.7 |
| 20260831024003 | 63 | 337 | 8.0 | 13.0 | 0.00 | 0.00 | 0.00 | 84 | 1014.5 |
| 20260831023003 | 63 | 357 | 8.0 | 20.0 | 0.00 | 0.00 | 0.00 | 83 | 1014.7 |
| 20260831022003 | 64 | 349 | 14.0 | 29.0 | 0.00 | 0.00 | 0.00 | 81 | 1014.9 |
| 20260831021003 | 65 | 346 | 16.0 | 33.0 | 0.00 | 0.00 | 0.00 | 80 | 1015.0 |
| 20260831020002 | 66 | 352 | 12.0 | 32.0 | 0.00 | 0.00 | 0.00 | 83 | 1014.8 |
| 20260831015003 | 65 | 341 | 4.0 | 6.0 | 0.00 | 0.00 | 0.00 | 85 | 1013.9 |
| 20260831014024 | 66 | 300 | 3.0 | 5.0 | 0.00 | 0.00 | 0.00 | 84 | 1013.6 |
| 20260831013002 | 66 | 214 | 4.0 | 9.0 | 0.00 | 0.00 | 0.00 | 82 | 1013.6 |
| 20260831012003 | 67 | 331 | 2.0 | 6.0 | 0.00 | 0.00 | 0.00 | 82 | 1013.2 |
| 20260831011024 | 67 | 293 | 3.0 | 5.0 | 0.00 | 0.00 | 0.00 | 82 | 1013.4 |
| 20260831010003 | 67 | 283 | 1.0 | 6.0 | 0.00 | 0.00 | 0.00 | 80 | 1013.5 |
| 20260831005003 | 68 | 262 | 4.0 | 11.0 | 0.00 | 0.00 | 0.00 | 78 | 1013.5 |
| 20260831004024 | 69 | 266 | 8.0 | 15.0 | 0.00 | 0.00 | 0.00 | 78 | 1013.5 |
| 20260831003004 | 69 | 275 | 10.0 | 15.0 | 0.00 | 0.00 | 0.00 | 78 | 1013.3 |
| 20260831001002 | 68 | 265 | 11.0 | 16.0 | 0.00 | 0.00 | 0.00 | 78 | 1013.1 |
| 20260831000024 | 69 | 268 | 10.0 | 14.0 | 0.00 | 0.00 | 0.00 | 76 | 1013.1 |
| 20260830235004 | 69 | 265 | 9.0 | 12.0 | 0.00 | 0.00 | 0.00 | 76 | 1012.8 |
| 20260830234002 | 69 | 264 | 9.0 | 12.0 | 0.00 | 0.00 | 0.00 | 76 | 1012.8 |
| 20260830233003 | 69 | 265 | 9.0 | 14.0 | 0.00 | 0.00 | 0.00 | 77 | 1012.8 |
| 20260830232003 | 68 | 271 | 11.0 | 14.0 | 0.00 | 0.00 | 0.00 | 80 | 1012.7 |
| 20260830231003 | 67 | 273 | 9.0 | 11.0 | 0.00 | 0.00 | 0.00 | 82 | 1012.7 |
| 20260830230003 | 66 | 272 | 8.0 | 11.0 | 0.00 | 0.00 | 0.00 | 83 | 1012.7 |
| 20260830225002 | 66 | 262 | 8.0 | 10.0 | 0.00 | 0.00 | 0.00 | 84 | 1012.6 |
| 20260830224003 | 66 | 262 | 8.0 | 11.0 | 0.00 | 0.00 | 0.00 | 85 | 1012.8 |
| 20260830223003 | 66 | 262 | 6.0 | 10.0 | 0.00 | 0.00 | 0.00 | 85 | 1012.8 |
| 20260830222024 | 66 | 265 | 7.0 | 13.0 | 0.00 | 0.00 | 0.00 | 85 | 1012.8 |
| 20260830221003 | 66 | 259 | 6.0 | 15.0 | 0.00 | 0.00 | 0.00 | 85 | 1012.9 |
| 20260830220003 | 66 | 258 | 9.0 | 14.0 | 0.00 | 0.00 | 0.00 | 85 | 1013.0 |
| 20260830215003 | 66 | 258 | 9.0 | 14.0 | 0.00 | 0.00 | 0.00 | 85 | 1012.9 |
| 20260830214003 | 67 | 248 | 3.0 | 14.0 | 0.00 | 0.00 | 0.00 | 84 | 1013.0 |
| 20260830213023 | 67 | 257 | 4.0 | 11.0 | 0.00 | 0.00 | 0.00 | 84 | 1012.9 |
| 20260830212024 | 67 | 258 | 4.0 | 11.0 | 0.00 | 0.00 | 0.00 | 83 | 1012.8 |
| 20260830211003 | 67 | 252 | 5.0 | 13.0 | 0.00 | 0.00 | 0.00 | 82 | 1012.9 |
| 20260830210002 | 67 | 259 | 5.0 | 13.0 | 0.00 | 0.00 | 0.00 | 82 | 1012.9 |
| 20260830205003 | 67 | 256 | 6.0 | 12.0 | 0.00 | 0.00 | 0.00 | 82 | 1013.0 |
| 20260830204024 | 68 | 257 | 7.0 | 14.0 | 0.00 | 0.00 | 0.00 | 82 | 1013.0 |
| 20260830203003 | 67 | 258 | 8.0 | 15.0 | 0.00 | 0.00 | 0.00 | 83 | 1013.0 |
| 20260830202003 | 66 | 252 | 6.0 | 13.0 | 0.00 | 0.00 | 0.00 | 85 | 1013.1 |
| 20260830201002 | 66 | 246 | 3.0 | 10.0 | 0.00 | 0.00 | 0.00 | 84 | 1013.2 |
| 20260830200003 | 67 | 251 | 4.0 | 14.0 | 0.00 | 0.00 | 0.00 | 84 | 1013.3 |
| 20260830195003 | 66 | 253 | 8.0 | 15.0 | 0.00 | 0.00 | 0.00 | 85 | 1013.4 |
| 20260830194003 | 67 | 240 | 4.0 | 13.0 | 0.00 | 0.00 | 0.00 | 85 | 1013.6 |
| 20260830193003 | 67 | 257 | 7.0 | 11.0 | 0.00 | 0.00 | 0.00 | 85 | 1013.6 |
| 20260830192024 | 66 | 266 | 8.0 | 12.0 | 0.00 | 0.00 | 0.00 | 86 | 1013.7 |
| 20260830191003 | 66 | 248 | 5.0 | 12.0 | 0.00 | 0.00 | 0.00 | 86 | 1014.1 |
| 20260830190003 | 66 | 251 | 3.0 | 16.0 | 0.00 | 0.00 | 0.00 | 87 | 1014.2 |
| 20260830185023 | 66 | 262 | 7.0 | 10.0 | 0.00 | 0.00 | 0.00 | 87 | 1014.5 |
| 20260830184003 | 65 | 266 | 8.0 | 12.0 | 0.00 | 0.00 | 0.00 | 87 | 1014.4 |
| 20260830183003 | 65 | 263 | 9.0 | 13.0 | 0.00 | 0.00 | 0.00 | 86 | 1014.8 |
| 20260830182002 | 66 | 252 | 4.0 | 9.0 | 0.00 | 0.00 | 0.00 | 85 | 1014.8 |
| 20260830181003 | 66 | 255 | 6.0 | 14.0 | 0.00 | 0.00 | 0.00 | 85 | 1014.8 |
| 20260830180003 | 66 | 259 | 10.0 | 16.0 | 0.00 | 0.00 | 0.00 | 85 | 1014.9 |
| 20260830175003 | 66 | 259 | 8.0 | 17.0 | 0.00 | 0.00 | 0.00 | 84 | 1014.9 |
| 20260830174002 | 66 | 255 | 8.0 | 16.0 | 0.00 | 0.00 | 0.00 | 84 | 1014.9 |
| 20260830173024 | 66 | 262 | 10.0 | 16.0 | 0.00 | 0.00 | 0.00 | 84 | 1014.8 |
| 20260830172024 | 66 | 258 | 7.0 | 15.0 | 0.00 | 0.00 | 0.00 | 84 | 1014.7 |
| 20260830171002 | 66 | 252 | 4.0 | 13.0 | 0.00 | 0.00 | 0.00 | 84 | 1014.7 |
| 20260830170003 | 66 | 256 | 7.0 | 13.0 | 0.00 | 0.00 | 0.00 | 84 | 1014.7 |
| 20260830165002 | 66 | 251 | 5.0 | 8.0 | 0.00 | 0.00 | 0.00 | 83 | 1014.8 |
| 20260830164003 | 67 | 259 | 5.0 | 8.0 | 0.00 | 0.00 | 0.00 | 81 | 1014.8 |
| 20260830163003 | 68 | 245 | 5.0 | 9.0 | 0.00 | 0.00 | 0.00 | 79 | 1014.9 |
| 20260830162002 | 69 | 259 | 6.0 | 12.0 | 0.00 | 0.00 | 0.00 | 78 | 1015.0 |
| 20260830161004 | 68 | 258 | 5.0 | 12.0 | 0.00 | 0.00 | 0.00 | 82 | 1015.2 |
| 20260830160003 | 67 | 261 | 6.0 | 13.0 | 0.00 | 0.00 | 0.00 | 81 | 1015.3 |
| 20260830155003 | 67 | 256 | 8.0 | 14.0 | 0.00 | 0.00 | 0.00 | 80 | 1015.3 |
| 20260830154024 | 67 | 261 | 7.0 | 12.0 | 0.00 | 0.00 | 0.00 | 81 | 1015.4 |
| 20260830153002 | 67 | 256 | 6.0 | 11.0 | 0.00 | 0.00 | 0.00 | 81 | 1015.5 |
| 20260830152003 | 66 | 265 | 7.0 | 14.0 | 0.00 | 0.00 | 0.00 | 80 | 1015.8 |
| 20260830151003 | 67 | 258 | 7.0 | 13.0 | 0.00 | 0.00 | 0.00 | 80 | 1015.8 |
| 20260830150003 | 66 | 259 | 5.0 | 12.0 | 0.00 | 0.00 | 0.00 | 81 | 1016.1 |
| 20260830145003 | 66 | 255 | 6.0 | 9.0 | 0.00 | 0.00 | 0.00 | 82 | 1016.2 |
| 20260830144003 | 66 | 250 | 3.0 | 8.0 | 0.00 | 0.00 | 0.00 | 83 | 1016.3 |
| 20260830143003 | 66 | 240 | 4.0 | 11.0 | 0.00 | 0.00 | 0.00 | 82 | 1016.3 |
| 20260830142003 | 66 | 234 | 7.0 | 12.0 | 0.00 | 0.00 | 0.00 | 80 | 1016.4 |
| 20260830141002 | 67 | 241 | 4.0 | 8.0 | 0.00 | 0.00 | 0.00 | 81 | 1016.4 |
| 20260830140003 | 66 | 256 | 6.0 | 12.0 | 0.00 | 0.00 | 0.00 | 82 | 1016.5 |
| 20260830135003 | 66 | 256 | 7.0 | 12.0 | 0.00 | 0.00 | 0.00 | 83 | 1016.7 |